Location: Geyikbay?r?
(36.8756°N, 30.4583°E)
Time: 12:38:33
(UTC+00:00)

ATLAS 5 CENTAUR R/B - Pass Details

Date: 05 August 2024
Orbit: 411 x 1157 km, 63.3° (Epoch: 11 September)

Event Time Altitude Azimuth Distance (km) Brightness Sun altitude
Rises 19:24:34 0° 345° (NNW) 2,960 6.1 -24.6°
Reaches altitude 10° 19:27:31 10° 6° (N) 2,194 4.9 -25.0°
Maximum altitude 19:30:46 17° 46° (NE) 1,920 4.1 -25.4°
Enters shadow 19:31:46 16° 59° (ENE) 2,002 4.0 -25.5°
